カタログに戻る

CZ-4 DEB

運用中SSO
NORAD 20876·DEBRIS·🇨🇳 China

打ち上げ Sep 3, 1990 から Taiyuan Satellite Launch Center

Loading…

次のパス (今後24時間)

TLE

最新Source: Space-Track

元期: Sep 14, 2026, 11:38 UTC

1 20876U 90081AL  26257.48491367  .00001311  00000-0  42530-3 0  9998
2 20876  98.4639 260.5386 0012756 247.1862 266.0668 14.40532494870055

AllMySatでCZ-4 DEBをリアルタイム追跡

Download on the App Store